Terug naar catalogus

ASC 1

ActiefCommunicatieGEO
NORAD 15994·PAYLOAD·🇺🇸 United States

Gelanceerd Aug 27, 1985 vanaf Cape Canaveral Space Force Station

Loading…

TLE

VersSource: Space-Track

Epoch: Sep 14, 2026, 06:26 UTC

1 15994U 85076C   26257.26864056 -.00000219  00000-0  00000-0 0  9996
2 15994  13.7459 342.6673 0001978 152.8767 225.7905  1.00302081118871

Volg ASC 1 in realtime met AllMySat

Download on the App Store